Regional Weather Roundup
Issued by NWS

Home | Current Version | Previous Version | Graphics & Text | Print | Product List | Glossary On
Versions: 1 2 3 4 5 6 7 8 9 10 11 12 13 14 15 16 17 18 19 20 21 22 23 24 25 26 27 28 29 30 31 32 33 34 35 36 37 38 39 40 41 42 43 44 45 46 47 48 49 50
489
ASUS43 KFSD 240702
RWRSD

WEATHER ROUNDUP FOR SOUTH DAKOTA
NATIONAL WEATHER SERVICE SIOUX FALLS SD
200 AM CDT TUE MAY 24 2016

NOTE: "FAIR" INDICATES FEW OR NO CLOUDS BELOW 12,000 FEET WITH NO
SIGNIFICANT WEATHER AND/OR OBSTRUCTIONS TO VISIBILITY.


SDZ001>005-009-010-012>017-240800-
NORTHWEST AND NORTH CENTRAL SOUTH DAKOTA

CITY           SKY/WX    TMP DP  RH WIND       PRES   REMARKS
BUFFALO          N/A     49  36  61 SW6       29.78R
FAITH            N/A     58  38  47 N5        29.78R
MOBRIDGE       CLOUDY    58  45  62 E3        29.74R
$$

SDZ012>016-024>037-041>051-057-063-072>074-240800-
SOUTHWEST AND SOUTH CENTRAL SOUTH DAKOTA

CITY           SKY/WX    TMP DP  RH WIND       PRES   REMARKS
RAPID CTY ARPT CLEAR     55  35  47 NW15      29.83R
PIERRE         CLEAR     60  42  51 NW16      29.76R
CUSTER         CLEAR     48  23  37 W5        29.91S
ELLSWORTH AFB  CLEAR     56  36  46 NW16      29.82R
PHILIP         CLEAR     53  41  63 SW8       29.77S
PINE RIDGE     CLEAR     47  37  68 NW6       29.84F
WINNER         FAIR      58  45  62 SW8       29.76R
$$

SDZ004>011-016>023-039-040-240800-
NORTHEAST SOUTH DAKOTA

CITY           SKY/WX    TMP DP  RH WIND       PRES   REMARKS
ABERDEEN       PTCLDY    56  52  86 S5        29.74S
WATERTOWN      CLEAR     59  54  83 SE5       29.77S
BROOKINGS      CLEAR     60  59  96 S7        29.78S FOG
SISSETON         N/A     62  53  72 SW6       29.72S
$$

SDZ017-020-022-023-036>040-048>070-240800-
SOUTHEAST SOUTH DAKOTA

CITY           SKY/WX    TMP DP  RH WIND       PRES   REMARKS
SIOUX FALLS    CLEAR     63  60  90 S7        29.78S
HURON          CLEAR     59  57  93 SE3       29.75R
MITCHELL       CLEAR     64  62  93 SE5       29.74F
YANKTON        CLEAR     63  59  88 SE7       29.77R
$$

ABBREVIATIONS USED IN REMARKS
   TC - TEMPERATURE IN CELSIUS
  WCI - WIND CHILL INDEX
   HX - HEAT INDEX
  VSB - VISIBILITY





USA.gov is the U.S. government's official web portal to all federal, state and local government web resources and services.